Regional Weather Roundup
Issued by NWS

Home | Current Version | Previous Version | Graphics & Text | Print | Product List | Glossary Off
Versions: 1 2 3 4 5 6 7 8 9 10 11 12 13 14 15 16 17 18 19 20 21 22 23 24 25 26 27 28 29 30 31 32 33 34 35 36 37 38 39 40 41 42 43 44 45 46 47 48 49 50

000
ASUS43 KMKX 241021
RWRWI

WISCONSIN REGIONAL WEATHER ROUNDUP
NATIONAL WEATHER SERVICE MILWAUKEE/SULLIVAN WI
500 AM CDT FRI OCT 24 2014

NOTE: "FAIR" INDICATES FEW OR NO CLOUDS BELOW 12,000 FEET WITH NO
SIGNIFICANT WEATHER AND/OR OBSTRUCTIONS TO VISIBILITY.

WIZ001-002-006>008-014>016-023>028-241100-
NORTHWEST WISCONSIN

CITY           SKY/WX    TMP DP  RH WIND       PRES   REMARKS
SUPERIOR ARPT  FOG       38  38 100 CALM      29.91F VSB 1/2
ASHLAND        MOCLDY    43  42  97 SW5       29.94F FOG
HAYWARD        CLOUDY    49  47  93 S5        29.96F
SIREN          CLOUDY    47  46  97 S6        29.93S FOG
CUMBERLAND     CLOUDY    46  46 100 S5        29.96F FOG
RICE LAKE      CLOUDY    49  48  95 SE6       29.98F FOG
CHETEK         CLOUDY    49  49  99 SE6       29.97F FOG
LADYSMITH      FOG       48  47  97 S6        30.01S VSB 1
EAU CLAIRE     CLOUDY    49  48  97 S6        29.99F
MENOMONIE      CLOUDY    50  49  95 S5        29.99S FOG
NEW RICHMOND   CLOUDY    47  47 100 SE7       29.95F FOG
OSCEOLA        MOCLDY    46  46 100 CALM      29.97F FOG
$$

WIZ003>005-009-010-017-018-241100-
NORTH CENTRAL WISCONSIN

CITY           SKY/WX    TMP DP  RH WIND       PRES   REMARKS
MANITOWISH WTR CLOUDY    45  45 100 SW7       29.98S FOG
ARBOR VITAE    CLOUDY    45  44  97 SW5       29.99S FOG
WOODRUFF       CLOUDY    45  44  97 SW5       29.99S FOG
RHINELANDER    FOG       43  43 100 W7        30.01R VSB 1/2
EAGLE RIVER    FOG       44  44 100 CALM      29.99R VSB 3/4
LAND O LAKES   FOG       44  44 100 SW3       29.99S VSB 1/2
PHILLIPS       CLOUDY    45  45 100 S3        29.99S FOG
TOMAHAWK       RAIN      44  43  97 CALM      30.01S VSB<1/4
MEDFORD        FOG       44  44 100 S3        30.01S VSB 1/4
MERRILL        FOG       44  44 100 CALM      30.01S VSB 3/4
$$

WIZ029-030-035-036-043>047-241100-
CENTRAL WISCONSIN

CITY           SKY/WX    TMP DP  RH WIND       PRES   REMARKS
WAUSAU         CLOUDY    45  45 100 W7        30.01R FOG
MOSINEE        FOG       45  45 100 W5        30.03R VSB 1/2
MARSHFIELD     FOG       46  45  96 SW5       30.02R VSB 1/4
STEVENS POINT  CLOUDY    45  45 100 W6        30.03R FOG
WAUPACA        CLOUDY    49  48  97 SW3       30.03R FOG
WAUTOMA        CLOUDY    48  48 100 W6        30.04R FOG
WISC RAPIDS    FOG       47  46  97 SW7       30.04R VSB 3/4
CAMP DOUGLAS   CLOUDY    46  46 100 VRB2      30.03F FOG
$$

WIZ011>013-019>022-031-037>040-048>050-241100-
NORTHEAST WISCONSIN

CITY           SKY/WX    TMP DP  RH WIND       PRES   REMARKS
ANTIGO         FOG       43  43 100 W5        30.01R VSB 1/2
SHAWANO        FOG       48  47  94 W5        30.01S VSB 3/4
OCONTO         CLOUDY    47  47 100 CALM      30.01S
STURGEON BAY   CLOUDY    48  45  87 SW5       30.01F
GREEN BAY      CLOUDY    48  47  96 SW3       30.01F FOG
MANITOWOC      CLOUDY    49  48  97 W5        30.03S
APPLETON       CLOUDY    46  45  93 SW3       30.02S FOG
CLINTONVILLE   CLOUDY    46  45  93 CALM      30.01S FOG
OSHKOSH        CLOUDY    48  48 100 CALM      30.02F FOG
$$

WIZ032>034-041-042-053>061-241100-
SOUTHWEST WISCONSIN

CITY           SKY/WX    TMP DP  RH WIND       PRES   REMARKS
LA CROSSE      CLOUDY    51  50  96 S7        30.02R FOG
SPARTA         FOG       48  47  99 CALM      30.04S VSB 3/4
VIROQUA        CLOUDY    48  48 100 CALM      30.03S VSB 1/4
BOSCOBEL       FOG       51  50  96 CALM      30.05R VSB 1/2
PRAIRIE DU CHI FOG       51  49  96 CALM      30.04R VSB 3/4
PLATTEVILLE    CLOUDY    50  49  98 CALM      30.05R VSB 1/4
$$

WIZ056-057-062-063-064-067-068-241100-
SOUTH CENTRAL WISCONSIN

CITY           SKY/WX    TMP DP  RH WIND       PRES   REMARKS
REEDSBURG      FOG       46  46 100 W5        30.04R VSB 3/4
BARABOO/DELLS  FOG       47  46  96 CALM      30.04R VSB 1/4
LONE ROCK      CLOUDY    52  47  83 SW5       30.05R HAZE
MINERAL POINT  FOG       50  48  93 CALM      30.04S VSB<1/4
MADISON        CLOUDY    49  48  97 NW5       30.04S FOG
MIDDLETON      CLOUDY    50  50  99 W5        30.04S VSB 1
WATERTOWN      CLOUDY    48  48 100 CALM      30.04S FOG
MONROE         CLOUDY    48  48 100 W3        30.04F FOG
JANESVILLE     CLOUDY    52  50  93 W6        30.04S FOG
$$

WIZ051-052-058>065-066-070>072-241100-
SOUTHEAST WISCONSIN

CITY           SKY/WX    TMP DP  RH WIND       PRES   REMARKS
MILWAUKEE      CLOUDY    52  49  89 W5        30.04S
WAUKESHA       CLOUDY    46  46 100 W6        30.04S FOG
MILWAUKEE/TIMM CLOUDY    50  46  87 W3        30.05R FOG
RACINE         CLOUDY    52  48  86 W3        30.06S
BURLINGTON     CLOUDY    48  47  97 CALM      30.05R FOG
KENOSHA        CLOUDY    50  48  93 S3        30.04S FOG
FOND DU LAC    CLOUDY    48  47  96 CALM      30.03S FOG
SHEBOYGAN      CLOUDY    49  48  97 CALM      30.03S FOG
WEST BEND      CLOUDY    46  45  93 W5        30.03S FOG
JUNEAU         FOG       47  47  99 CALM      30.05S VSB 3/4
$$

LSZ147-162-241100-
LAKE SUPERIOR

STATION/POSITION TIME  TEMP    WIND        PRES    WAVE
                       AIR SEA DIR/SP/G            HT/PER
                 (UTC) (F)     (DEG/KT/KT) (MB)    (FT/S)
W MID LAKE BUOY  0950   47 46  190/  6/  8 1014.0R   1/ 3
DEVILS ISLAND    1000   48     230/  2/  3 1013.9S
PORT WING        0900   46      CALM  /  2 1013.5F
SAXON HARBOR     0900   50     200/  4/  7 1013.5S
$$

LMZ867-665-643>646-241100-
LAKE MICHIGAN

STATION/POSITION TIME  TEMP    WIND        PRES    WAVE
                       AIR SEA DIR/SP/G            HT/PER
                 (UTC) (F)     (DEG/KT/KT) (MB)    (FT/S)
CHAMBERS ISLAND  0900   49     210/  5/  7 1015.9F
N MID LAKE BUOY  0950   50 51  230/  6/  8 1016.1F   2/ 5
NORTHPORT PIER   0900   49     210/  3/  5 1015.9F
SISTER BAY       0813             CALM       N/A
ALGOMA LAKESHORE 0841             CALM       N/A
KEWAUNEE LAKESHO 1000   49     260/  4/  5 1015.5S
SHEBOYGAN LAKESH 1000   50 51  270/  4/  5 1017.2F
PORT WASHINGTON  0900   52     290/  2/  3 1017.6
ATWATER BUOY     1000   52     260/  4/  4 1018.5R
MILWAUKEE LAKESH 1000   51     280/  4/  6   N/A
S MID LAKE BUOY  0950   55 54  240/ 10/ 12 1017.9R   2/ 3
KENOSHA   LAKESH 1000   51     250/  4/  5 1017.3S
$$

TC  - TEMPERATURE IN CELSIUS
VSB - VISIBILITY IN STATUTE MILES
WCI - WIND CHILL INDEX
HX  - HEAT INDEX




USA.gov is the U.S. government's official web portal to all federal, state and local government web resources and services.